Regional Weather Roundup
Issued by NWS

Home | Current Version | Previous Version | Graphics & Text | Print | Product List | Glossary On
Versions: 1 2 3 4 5 6 7 8 9 10 11 12 13 14 15 16 17 18 19 20 21 22 23 24 25 26 27 28 29 30 31 32 33 34 35 36 37 38 39 40 41 42 43 44 45 46 47 48 49 50
000
ASUS43 KMKX 181720
RWRWI

WISCONSIN REGIONAL WEATHER ROUNDUP
NATIONAL WEATHER SERVICE MILWAUKEE/SULLIVAN WI
1100 AM CST THU JAN 18 2018

NOTE: "FAIR" INDICATES FEW OR NO CLOUDS BELOW 12,000 FEET WITH NO
SIGNIFICANT WEATHER AND/OR OBSTRUCTIONS TO VISIBILITY.

WIZ001-002-006>008-014>016-023>028-181800-
NORTHWEST WISCONSIN

CITY           SKY/WX    TMP DP  RH WIND       PRES   REMARKS
SUPERIOR ARPT  CLOUDY    33  23  67 SW9       29.77S WCI  25
ASHLAND        NOT AVBL
HAYWARD        PTSUNNY   31  20  63 W5        29.79S WCI  26
SIREN          FAIR      33  20  61 W12       29.83S WCI  24
CUMBERLAND     FAIR      30  18  59 W13       29.82F WCI  20
RICE LAKE      FAIR      31  20  63 CALM      29.85F
CHETEK         FAIR      31  20  62 SW7       29.85S WCI  25
LADYSMITH      FAIR      31  20  65 SW10      29.83F WCI  22
EAU CLAIRE     FAIR      30  20  66 W12       29.87S WCI  20
MENOMONIE      FAIR      34  21  60 SW8       29.87F WCI  27
NEW RICHMOND   FAIR      30  18  61 SW8       29.86F WCI  23
OSCEOLA        FAIR      33  21  62 SW6       29.88F WCI  27
$$

WIZ003>005-009-010-017-018-181800-
NORTH CENTRAL WISCONSIN

CITY           SKY/WX    TMP DP  RH WIND       PRES   REMARKS
MANITOWISH WTR CLOUDY    26  19  74 SW14      29.75S WCI  14
ARBOR VITAE    CLOUDY    29  22  74 W10G17    29.76S WCI  20
WOODRUFF       CLOUDY    29  22  74 W10G17    29.76S WCI  20
RHINELANDER    CLOUDY    25  19  78 SW12      29.77S WCI  14
EAGLE RIVER    CLOUDY    26  18  74 W14G20    29.74F WCI  14
LAND O LAKES   CLOUDY    27  19  73 SW7       29.75S WCI  19
PHILLIPS       CLOUDY    26  19  75 SW9       29.78F WCI  17
TOMAHAWK       CLOUDY    26  19  72 CALM      29.80R
MEDFORD        FAIR      27  18  69 SW8G16    29.83S WCI  18
MERRILL        FAIR      27  19  71 SW8       29.82F WCI  19
$$

WIZ029-030-035-036-043>047-181800-
CENTRAL WISCONSIN

CITY           SKY/WX    TMP DP  RH WIND       PRES   REMARKS
WAUSAU         FAIR      26  17  68 SW12      29.83S WCI  16
MOSINEE        MOSUNNY   25  19  80 SW10      29.86S WCI  15
MARSHFIELD     FAIR      27  18  69 SW10      29.84S WCI  17
STEVENS POINT  FAIR      26  16  66 SW10      29.88F WCI  16
WAUPACA        FAIR      29  18  62 SW3       29.91R
WAUTOMA        FAIR      27  17  66 S12       29.91F WCI  17
WISC RAPIDS    FAIR      25  15  66 SW10      29.91R WCI  15
CAMP DOUGLAS   PTSUNNY   28  18  64 SW7       29.92F WCI  21
$$

WIZ011>013-019>022-031-037>040-048>050-181800-
NORTHEAST WISCONSIN

CITY           SKY/WX    TMP DP  RH WIND       PRES   REMARKS
ANTIGO         FAIR      24  18  78 SW10      29.81F WCI  14
SHAWANO        FAIR      28  18  66 SW12      29.86F WCI  18
OCONTO         FAIR      25  16  69 SW7       29.87F WCI  17
STURGEON BAY   FAIR      26  18  71 SW10      29.87F WCI  16
GREEN BAY      FAIR      25  16  68 MISG      29.91R
MANITOWOC      FAIR      26  17  68 SW17      29.91F WCI  13
APPLETON       PTSUNNY   23  14  68 SW14      29.88F WCI  11
CLINTONVILLE   FAIR      27  18  69 W7        29.89F WCI  19
OSHKOSH        FAIR      24  16  71 SW16G23   29.92F WCI  11
$$

WIZ032>034-041-042-053>061-181800-
SOUTHWEST WISCONSIN

CITY           SKY/WX    TMP DP  RH WIND       PRES   REMARKS
LA CROSSE      FAIR      26  16  65 S7        29.96F WCI  18
SPARTA         FAIR      29  18  62 SW3       29.95S
VIROQUA        FAIR      25  18  74 SW14      29.95F WCI  14
BOSCOBEL       FAIR      27  15  61 SW12      30.03F WCI  17
PRAIRIE DU CHI FAIR      27  14  59 SW7       30.04S WCI  19
PLATTEVILLE    FAIR      25  17  70 SW15      30.04F WCI  13
$$

WIZ056-057-062-063-064-067-068-181800-
SOUTH CENTRAL WISCONSIN

CITY           SKY/WX    TMP DP  RH WIND       PRES   REMARKS
REEDSBURG      FAIR      25  15  67 SW12      29.97F WCI  14
BARABOO/DELLS  FAIR      26  15  65 SW10G16   29.96F WCI  15
LONE ROCK      FAIR      26  16  65 SW7       30.02F WCI  18
MINERAL POINT  FAIR      28  18  64 SW9       30.01S WCI  20
MADISON        FAIR      24  14  65 SW9       30.02R WCI  14
MIDDLETON      FAIR      28  16  63 W14G21    30.01S WCI  16
WATERTOWN      FAIR      22  14  72 SW12      30.01S WCI  10
MONROE         FAIR      23  14  68 SW20G26   30.02F WCI   8
JANESVILLE     MOSUNNY   25  14  63 SW15G22   30.05F WCI  12
$$

WIZ051-052-058>065-066-070>072-181800-
SOUTHEAST WISCONSIN

CITY           SKY/WX    TMP DP  RH WIND       PRES   REMARKS
MILWAUKEE      PTSUNNY   25  15  66 SW16G25   30.01F WCI  12
WAUKESHA       SUNNY     21  12  68 SW13      30.01F WCI   9
MILWAUKEE/TIMM SUNNY     25  12  58 SW12G23   30.01F WCI  14
RACINE         FAIR      25  14  63 SW14G23   30.03F WCI  13
BURLINGTON     FAIR      25  14  64 SW14      30.04F WCI  13
KENOSHA        FAIR      24  13  62 W22G30    30.05S WCI   9
FOND DU LAC    FAIR      25  14  63 SW13G21   29.95F WCI  14
SHEBOYGAN      FAIR      25  17  72 SW15      29.94F WCI  13
WEST BEND      FAIR      25  16  68 W13       29.98S WCI  13
JUNEAU         FAIR      23  15  72 SW18      29.98F WCI   9
$$

LSZ147-162-181800-
LAKE SUPERIOR

STATION/POSITION TIME  TEMP    WIND        PRES    WAVE
                       AIR SEA DIR/SP/G            HT/PER
                 (UTC) (F)     (DEG/KT/KT) (MB)    (FT/S)
DEVILS ISLAND    1700   32     240/ 17/ 21 1007.3R
SAXON HARBOR     1630   32     220/  9/ 14 1007.5R
$$

LMZ867-665-643>646-181800-
LAKE MICHIGAN

STATION/POSITION TIME  TEMP    WIND        PRES    WAVE
                       AIR SEA DIR/SP/G            HT/PER
                 (UTC) (F)     (DEG/KT/KT) (MB)    (FT/S)
NORTHPORT PIER   1650   26     210/ 12     1010.8F
KEWAUNEE LAKESHO 1654   26     140/  2/  4 1011.5F
SHEBOYGAN LAKESH 1700   25     220/ 12/ 14 1014.9F
PORT WASHINGTON  1630   25     270/  7/ 12 1017.3R
MILWAUKEE LAKESH 1700   25     230/ 16/ 18   N/A
KENOSHA   LAKESH 1700   24     240/ 10/ 19 1017.6
$$

TC  - TEMPERATURE IN CELSIUS
VSB - VISIBILITY IN STATUTE MILES
WCI - WIND CHILL INDEX
HX  - HEAT INDEX




USA.gov is the U.S. government's official web portal to all federal, state and local government web resources and services.